Terminal Aerodrome Forecast
Issued by NWS

Home | Current Version | Previous Version | Text Only | Print | Product List | Glossary On
Versions: 1 2 3 4 5 6 7 8 9 10 11 12 13 14 15 16 17 18 19 20 21 22 23 24 25
000
FTUS45 KPSR 260200 AAA
TAFPHX
TAF AMD
KPHX 260250Z 2603/2624 27005KT P6SM FEW120 SCT250
     FM260600 10006KT P6SM SCT250
     FM262100 25006KT P6SM SCT120 SCT250=

USA.gov is the U.S. government's official web portal to all federal, state and local government web resources and services.